User: anonymous   Login
Location: Burgberg
(50.1428°N, 11.0671°E)
Time: 18:11:51
(UTC+00:00)
Language:

Cosmos 158 Rocket - Orbit

View from above orbital plane
View from above orbital plane
View from above satellite
View from above satellite

Ground track
Ground track

The orbit data is extracted from the following two-line orbital elements,

1  2802U 67045B   20099.87638465 -.00000029 +00000-0 -18545-6 0  9993
2  2802 074.0128 055.2545 0067510 223.5559 136.0257 14.43763149777144
Epoch (UTC): 08 April 2020 21:01:59
Eccentricity: 0.0067510
inclination: 74.0128°
perigee height: 698 km
apogee height: 794 km
right ascension of ascending node: 55.2545°
argument of perigee: 223.5559°
revolutions per day: 14.43763149
mean anomaly at epoch: 136.0257°
orbit number at epoch: 77714

The dashed part of the orbit path shows where the satellite is in the earth's shadow,  

DLR